Theta_e
340 340 343 348 352 349 346 343 342 342 343 344 342 343 341 339 338 336 334 334 334 333 331 331 331 327 326 327 328 330 329 328 325 329 326 327 324 326 327 329 327 325 329
347 348 349 349 352 348 346 347 344 346 345 343 342 339 338 334 333 334 334 333 333 331 331 331 331 326 325 329 329 329 329 328 328 328 329 330 330 329 330 328 329 330 329
346 348 351 350 350 348 348 347 346 344 342 340 338 333 333 334 334 334 333 332 334 333 332 331 330 324 324 329 330 330 330 329 329 329 329 329 329 330 330 329 330 328 328
348 349 346 344 345 345 344 342 340 339 338 337 334 333 333 333 333 334 335 334 333 333 332 331 326 325 325 328 330 329 329 329 329 328 327 327 326 327 329 326 326 327 328
344 344 343 343 342 340 340 338 338 335 333 332 332 332 332 333 334 333 333 334 333 332 329 328 327 328 328 330 329 329 329 329 327 326 325 325 324 324 324 323 322 326 326
344 343 343 341 340 339 338 335 333 332 332 333 332 331 331 329 328 331 331 330 332 330 329 328 327 328 329 330 328 329 328 329 326 325 324 324 324 323 323 323 322 322 320
342 341 341 340 339 337 332 330 330 332 331 332 331 331 329 328 330 332 330 330 329 329 328 328 329 329 329 329 329 329 329 329 329 326 324 323 322 323 323 322 323 322 321
339 338 337 336 334 330 330 331 331 331 332 333 333 331 328 328 331 331 331 327 327 328 327 329 329 330 328 329 329 330 329 328 327 325 324 323 323 323 324 322 321 322 321
333 334 333 331 330 332 333 331 331 331 333 333 332 331 328 327 329 331 330 326 326 326 328 329 328 328 329 330 329 329 327 326 326 325 324 324 323 324 323 323 321 320 320
333 333 332 332 332 332 332 332 332 331 331 332 332 330 328 327 329 331 329 327 326 326 326 328 327 326 328 330 328 328 327 325 324 323 324 323 323 323 324 323 321 320 320
334 333 333 332 331 332 331 332 331 332 332 332 330 328 327 327 329 329 329 327 326 326 326 328 327 326 328 328 327 327 327 325 324 323 322 322 322 322 322 321 321 320 320
333 332 332 332 332 331 331 331 332 332 332 331 330 328 327 326 326 327 327 326 325 325 325 325 325 327 329 328 327 326 327 325 323 321 321 321 321 321 321 321 320 320 320
332 332 332 332 331 330 330 332 332 332 332 330 329 327 326 326 326 326 326 325 325 325 324 324 326 327 328 327 326 326 326 324 322 321 321 321 321 322 321 321 321 320 320
332 332 331 333 332 330 330 330 330 332 331 330 329 327 326 324 324 324 326 326 325 324 323 325 325 325 325 325 324 324 324 323 322 321 320 321 322 321 321 321 321 320 320
332 332 332 333 331 331 331 331 332 331 332 332 329 327 326 325 323 324 324 322 322 323 323 323 322 322 322 322 322 322 322 321 321 321 320 321 321 321 320 320 320 319 319
331 332 333 332 330 330 328 327 330 331 332 331 330 328 326 326 325 324 322 323 322 322 322 321 321 321 322 323 322 322 321 321 321 321 321 321 320 320 320 320 320 322 320
330 331 332 333 329 327 326 326 322 325 331 331 330 328 327 326 325 324 322 322 321 322 321 321 322 323 324 324 322 321 321 321 321 321 321 321 321 320 321 322 322 325 325
330 332 332 334 332 330 327 327 328 327 325 324 328 327 326 325 324 322 322 322 322 322 322 322 322 323 324 324 323 322 322 323 322 321 321 322 322 321 322 324 324 325 325
330 332 332 333 333 331 329 328 329 326 322 320 323 324 324 324 322 322 323 324 324 323 322 322 322 322 323 325 324 324 323 324 324 325 323 324 325 324 324 324 325 323 320
330 331 332 333 332 331 332 330 328 325 322 323 322 323 323 322 321 322 323 325 325 325 324 323 323 323 324 325 326 326 326 325 325 325 325 325 325 325 325 326 325 324 324
332 332 332 331 331 331 331 331 328 327 326 324 322 324 323 322 321 322 324 328 328 326 325 324 323 323 324 326 327 327 326 326 326 326 326 325 326 328 327 327 326 327 326
329 331 331 331 331 332 332 332 330 329 329 325 324 325 324 323 323 323 325 327 327 327 326 327 326 327 327 327 328 327 327 328 328 328 328 327 326 326 326 327 327 327 326
329 329 330 331 331 331 331 333 331 331 329 326 324 325 325 325 325 326 326 324 324 323 328 327 327 325 324 325 324 326 327 327 327 327 327 328 328 328 327 328 328 328 328
330 330 330 330 331 331 331 330 330 329 328 326 326 326 322 319 316 315 314 314 312 310 313 315 316 317 318 320 321 323 325 325 327 326 327 328 329 329 328 328 327 327 327
324 326 327 328 325 322 323 322 321 325 327 325 322 316 316 315 311 308 306 307 308 305 305 308 309 311 313 314 316 317 319 322 323 324 324 324 323 323 322 319 318 317 316
313 314 317 323 316 311 312 311 308 309 309 308 307 305 304 304 303 302 301 299 298 299 300 301 301 301 303 304 307 310 311 312 315 317 317 316 316 313 312 310 308 307 305
Wind_Speed
26 26 26 26 27 30 27 24 24 23 23 22 22 20 21 20 18 13 12 12 15 17 16 14 12 10 9 7 8 9 9 9 3 4 18 16 17 20 20 16 16 19 18
27 24 23 26 28 31 29 26 26 25 24 24 23 22 21 15 12 11 12 12 15 17 16 16 14 12 8 7 11 9 10 11 10 13 17 15 16 18 14 19 20 19 17
25 25 24 25 28 32 32 28 28 26 25 23 22 16 14 14 17 16 12 12 13 16 19 19 16 13 10 7 11 11 9 12 19 21 12 17 18 19 23 22 21 20 18
28 28 30 30 32 32 31 29 28 25 22 20 17 15 17 16 12 11 10 9 11 13 16 15 12 11 10 10 12 14 13 15 26 21 18 17 18 19 22 24 22 22 21
28 29 29 33 35 33 30 27 22 20 18 17 17 20 17 14 13 11 9 7 8 11 12 10 9 8 12 13 15 16 17 25 23 20 14 14 14 15 18 17 21 25 20
29 26 28 33 32 29 26 23 21 20 18 21 24 19 14 11 8 7 6 7 10 10 9 8 7 5 5 10 16 16 20 30 25 19 13 15 14 18 22 27 25 20 6
29 27 28 29 29 27 21 19 19 25 26 24 23 17 13 10 9 9 8 10 10 10 9 9 8 7 7 11 13 16 19 24 27 29 24 20 21 26 30 27 21 19 12
27 25 27 28 25 20 20 23 24 24 23 23 18 15 13 11 11 10 11 10 13 11 9 8 11 11 10 17 19 21 20 17 15 21 28 26 25 29 31 25 24 23 24
24 25 29 26 22 22 23 25 24 24 22 20 16 14 12 13 11 11 11 12 12 10 9 11 13 13 11 19 23 24 23 17 12 15 22 20 23 27 30 28 25 24 14
29 28 30 29 26 22 26 25 23 20 18 17 16 13 12 14 10 12 11 12 12 10 9 9 12 11 12 22 21 26 23 22 21 22 20 21 24 27 28 28 31 25 18
29 29 29 29 27 24 26 23 20 19 19 18 18 14 12 11 11 10 9 11 14 12 12 11 12 12 15 19 18 20 23 24 21 23 26 28 27 27 26 22 28 29 25
29 29 25 27 27 28 24 22 20 19 23 23 21 16 12 9 9 9 8 12 13 16 14 13 14 13 17 18 18 22 22 24 25 24 23 23 25 25 22 22 25 25 18
32 29 26 27 27 27 24 20 19 25 25 21 18 15 14 10 10 9 10 14 13 15 15 17 17 17 19 18 20 22 25 24 25 22 19 19 24 25 21 20 19 18 16
26 25 26 26 22 23 21 19 19 23 22 20 18 16 17 13 13 13 12 14 16 16 21 21 20 19 21 24 23 20 20 21 23 22 21 21 23 20 19 19 17 16 18
27 27 25 26 24 18 16 12 13 14 19 25 23 23 21 16 16 13 13 15 20 26 25 22 22 23 23 19 15 14 15 16 18 20 20 20 20 19 18 17 15 14 13
24 22 23 24 21 21 23 17 12 16 16 21 22 19 21 17 16 14 14 20 27 26 23 20 19 19 18 15 16 15 14 14 17 20 20 20 18 19 18 17 15 16 20
23 22 22 22 22 22 21 22 18 18 18 22 17 19 22 22 19 16 19 24 22 22 20 17 17 17 16 16 16 15 16 14 16 18 20 19 19 20 19 18 18 16 17
28 29 26 21 23 20 20 22 21 19 18 19 22 23 23 22 20 19 26 23 18 18 20 20 19 18 15 15 15 15 16 14 16 18 19 18 18 21 19 16 17 18 19
28 25 24 24 27 25 23 24 21 22 21 22 24 23 23 23 22 25 23 15 16 16 19 19 17 16 16 11 14 15 18 18 18 17 18 18 19 20 19 19 20 21 22
22 27 29 20 25 25 25 27 24 22 22 20 18 23 24 24 26 23 15 5 11 13 16 17 17 19 16 9 12 16 20 18 19 19 20 19 19 20 20 22 23 25 28
29 32 28 26 26 22 27 24 23 22 20 20 22 25 26 24 23 19 12 7 11 15 15 14 16 16 13 10 12 19 19 18 19 19 21 21 19 17 21 22 25 27 28
22 30 27 22 25 21 22 25 24 23 22 24 25 24 20 19 22 20 8 1 4 5 14 13 10 7 8 8 10 17 17 16 15 16 19 19 19 21 24 26 27 27 24
15 23 23 24 17 21 18 20 24 23 21 19 22 24 15 12 10 7 8 11 8 13 12 10 10 8 10 9 7 7 9 10 12 14 16 20 21 23 23 21 22 25 26
28 24 28 22 19 18 17 17 25 29 28 24 19 17 23 26 27 25 25 24 26 27 26 25 22 19 18 15 13 11 7 4 4 6 9 9 7 8 10 6 10 11 13
35 28 36 32 26 20 35 29 29 31 31 28 26 25 25 27 30 30 28 28 28 30 31 30 28 25 24 24 22 19 16 15 12 8 9 10 13 13 9 13 14 14 16
37 36 30 32 22 18 25 35 27 27 32 31 29 28 30 30 29 29 29 31 32 32 33 33 31 29 28 27 24 19 18 19 18 14 15 15 16 17 17 18 18 20 20
Wind_Direction
177 185 187 187 187 176 175 175 176 177 182 182 177 179 169 168 173 182 194 209 203 200 206 209 213 212 209 218 219 224 197 184 135 94 152 162 154 158 162 176 188 185 179
164 169 180 188 177 167 168 170 175 176 175 164 160 161 166 177 196 191 190 187 203 207 209 206 204 202 210 240 209 190 198 189 165 131 136 139 145 167 159 161 167 166 167
163 167 170 163 160 158 158 164 162 157 153 156 163 171 172 175 188 189 209 217 220 221 213 210 206 206 236 230 208 194 193 179 161 137 128 123 126 137 137 142 142 146 149
153 146 133 132 138 143 146 146 143 151 158 164 161 163 181 181 186 193 198 211 225 221 215 201 200 215 232 234 208 194 172 155 145 130 128 119 124 136 138 130 135 148 147
129 126 126 132 139 142 142 142 148 148 151 156 153 147 139 143 149 160 185 202 200 171 172 189 198 226 228 220 200 187 165 150 139 130 128 127 131 136 140 140 133 146 150
128 133 135 139 140 139 141 140 146 157 163 151 138 139 146 142 142 162 162 161 166 172 182 177 189 222 217 189 189 184 180 165 149 148 149 146 152 150 153 148 142 140 127
128 133 137 141 143 146 150 160 157 144 141 139 136 140 132 133 140 143 134 136 143 150 154 157 164 145 129 152 158 165 182 185 181 171 155 162 157 167 159 156 158 153 137
133 135 138 138 146 147 154 147 140 140 140 131 137 135 134 137 142 143 148 137 132 130 129 141 137 141 122 133 139 143 144 155 171 178 173 172 175 170 170 157 155 153 149
130 129 139 139 143 149 148 149 142 132 129 135 143 139 142 142 145 148 150 142 142 135 128 123 138 136 135 142 137 136 137 136 152 169 167 172 174 173 170 163 148 145 150
136 139 142 148 149 145 152 146 142 143 143 144 141 136 145 144 144 137 155 149 141 133 131 132 141 152 151 156 145 146 134 141 146 151 153 160 170 173 180 181 164 161 154
141 139 147 148 152 153 154 148 149 145 138 139 127 123 128 138 134 145 159 159 149 139 133 139 148 161 159 161 163 156 151 149 145 149 150 156 165 171 177 183 176 169 166
140 142 146 148 151 155 155 151 152 149 141 138 136 131 128 137 138 138 139 153 154 151 145 141 138 145 148 159 160 154 153 151 146 145 144 149 157 166 176 183 182 180 172
134 139 142 149 158 157 155 149 134 152 144 146 140 138 139 137 139 142 141 144 140 153 154 143 136 139 148 150 149 154 158 157 150 147 149 153 167 173 172 175 184 192 187
123 128 143 142 145 158 159 157 158 165 155 152 149 147 143 143 136 132 138 151 153 146 145 139 139 140 143 139 144 152 158 164 162 159 159 167 174 174 179 185 183 186 196
119 123 127 140 148 132 133 146 174 183 186 162 163 159 150 156 159 151 156 152 151 146 140 138 138 136 136 137 144 149 158 163 166 166 166 169 173 181 184 186 192 189 201
131 137 138 138 137 134 124 106 138 164 171 180 169 167 156 152 151 156 141 144 142 143 137 132 132 141 148 151 156 158 165 172 175 168 170 181 176 182 186 195 191 200 208
154 148 147 137 137 136 131 120 106 112 141 148 154 150 151 145 149 150 144 141 143 148 134 140 146 155 153 167 167 172 173 178 180 176 177 174 188 186 184 193 199 205 222
163 162 158 157 148 149 140 131 124 122 113 115 142 145 142 138 145 144 144 141 144 153 154 157 163 166 162 163 169 171 176 170 174 178 184 180 184 185 195 207 211 219 232
173 158 164 162 159 156 148 142 131 125 120 124 128 133 138 142 145 148 153 148 154 159 170 175 176 179 177 167 176 168 173 175 182 185 185 188 195 199 209 219 229 233 233
162 168 159 157 156 153 147 140 132 131 132 134 134 136 145 149 157 166 168 157 168 166 172 180 183 181 180 190 201 198 193 192 196 202 204 208 213 218 228 239 237 244 241
148 151 159 159 158 145 144 141 139 140 141 142 148 152 157 157 166 177 185 165 178 183 176 168 172 184 197 202 200 195 194 200 206 209 218 222 222 228 240 247 248 255 256
154 145 155 159 162 155 155 154 150 148 147 148 158 157 158 162 172 186 193 294 13 156 188 182 177 195 224 227 224 211 209 213 215 230 235 233 232 236 241 244 250 261 255
162 173 170 164 155 162 155 139 138 129 132 137 149 155 149 154 165 175 133 102 98 106 152 155 154 120 110 130 126 161 202 214 236 260 259 258 260 263 254 250 262 261 258
102 89 102 90 116 130 142 119 123 125 126 122 121 116 102 103 100 109 113 111 106 99 102 106 107 107 104 96 88 91 116 143 115 87 90 105 105 60 65 69 45 40 31
91 92 96 90 68 79 99 89 88 94 107 108 107 96 92 94 92 91 96 103 99 94 93 92 88 86 87 87 85 80 79 93 92 81 70 70 62 63 56 41 48 37 32
88 85 82 104 98 73 91 94 84 90 97 97 95 92 92 89 88 91 94 94 94 95 94 90 87 84 83 83 83 84 78 71 68 61 61 61 58 54 50 45 40 39 37